Regional Weather Roundup
Issued by NWS Cleveland, OH

Home | Current Version | Previous Version | Text Only | Print | Product List | Glossary On
Versions: 1 2 3 4 5 6 7 8 9 10 11 12 13 14 15 16 17 18 19 20 21 22 23 24 25 26 27 28 29 30 31 32 33 34 35 36 37 38 39 40 41 42 43 44 45 46 47 48 49 50
000
ASUS41 KCLE 280402
RWRCLE
OHIO REGIONAL WEATHER ROUNDUP
NATIONAL WEATHER SERVICE CLEVELAND, OH
1200 AM EDT SAT MAY 28 2016

NOTE: "FAIR" INDICATES FEW OR NO CLOUDS BELOW 12,000 FEET WITH NO
SIGNIFICANT WEATHER AND/OR OBSTRUCTIONS TO VISIBILITY.

OHZ001>008-015>018-024>027-034-035-043-044-280500-
   NORTHWEST OHIO

CITY           SKY/WX    TMP DP  RH WIND       PRES   REMARKS
DEFIANCE       CLEAR     76  58  53 S7        29.98R
FINDLAY        PTCLDY    72  59  63 S9        30.00R
TOLEDO EXPRESS CLEAR     71  61  70 S5        29.98R
TOLEDO EXEC    PTCLDY    74  60  61 S8        29.99R
LIMA           CLOUDY    73  61  65 S6        30.01R
$$

OHZ009>014-019>023-028>033-038-089-280500-
   NORTHEAST OHIO

CITY           SKY/WX    TMP DP  RH WIND       PRES   REMARKS
CLE-HOPKINS    CLOUDY    75  62  64 S7        30.03S
CLE-LAKEFRONT  PTCLDY    79  63  57 S7        30.00R
CUY CO. ARPT   NOT AVBL
LORAIN-ELYRIA  PTCLDY    76  62  62 S9        30.02R
ASHTABULA      PTCLDY    67  64  90 CALM      30.04S
AKRON-CANTON   CLOUDY    72  63  73 S6        30.05S
WOOSTER        CLOUDY    70  62  76 S6        30.05S
MANSFIELD      CLOUDY    73  64  73 S7        30.05R
YOUNGSTOWN     MOCLDY    72  62  71 S6        30.05S
$$

OHZ042-051>053-060>062-070>072-077>081-280500-
  SOUTHWEST OHIO

CITY           SKY/WX    TMP DP  RH WIND       PRES   REMARKS
CINC-COVINGTON CLOUDY    74  65  73 S3        30.02S
CINC-LUNKEN    CLOUDY    68  68 100 CALM      30.03R
HAMILTON       CLEAR     71  66  84 CALM      30.02S
DAYTON         CLOUDY    75  62  64 S7        30.04R
WRIGHT-PAT AFB NOT AVBL
DAYTON GENERAL CLEAR     73  62  68 S3        30.02S
WILMINGTON     CLOUDY    71  63  75 CALM      30.04S
$$

OHZ036-037-039>041-045>050-054>059-063>069-073>076-082>088-280500-
  CENTRAL AND SOUTHEAST OHIO

CITY           SKY/WX    TMP DP  RH WIND       PRES   REMARKS
COLUMBUS       MOCLDY    76  63  64 SE3       30.03R
OSU AIRPORT    MOCLDY    76  63  64 S6        30.03R
BOLTON FIELD   NOT AVBL
RICKENBACK AFB NOT AVBL
NEWARK         CLOUDY    70  65  84 CALM      30.04R
MARION         PTCLDY    71  62  73 S6        30.04R
LANCASTER      PTCLDY    70  65  84 CALM      30.05R
ZANESVILLE     CLOUDY    74  67  78 CALM      30.05S
NEW PHILLY     PTCLDY    71  65  81 SE5       30.05S
$$




USA.gov is the U.S. government's official web portal to all federal, state and local government web resources and services.